User: anonymous   Login
Location: Hopkins Observatory
(42.6965°N, 73.1843°W)
Time: 14:28:19
(UTC-04:00)
Language:

RS-15 - Orbit

View from above orbital plane
View from above orbital plane
View from above satellite
View from above satellite

Ground track
Ground track

The orbit data is extracted from the following two-line orbital elements,

1 23439U 94085A   16179.14511762 -.00000033  00000-0  28060-3 0  9994
2 23439  64.8166  73.4262 0165536 306.1683  52.4024 11.27565756885543
Epoch (UTC): 27 June 2016 03:28:58
Eccentricity: 0.0165536
inclination: 64.8166°
perigee height: 1883 km
apogee height: 2161 km
right ascension of ascending node: 73.4262°
argument of perigee: 306.1683°
revolutions per day: 11.27565756
mean anomaly at epoch: 52.4024°
orbit number at epoch: 88554

The dashed part of the orbit path shows where the satellite is in the earth's shadow,  

DLR